| time (UTC) | temp F | wind direction | speed knots | gust knots | rain 1hr in | rain 24hr in | rain mn in | humidity % | barometer mb |
| 20260904133221 | 71 | 326 | 2.6 | 2.6 | 0.00 | 0.00 | 0.00 | 87 | 1014.4 |
| 20260904132720 | 70 | 0.0 | 0.0 | 0.00 | 0.00 | 0.00 | 87 | 1014.4 | |
| 20260904132221 | 69 | 326 | 0.9 | 0.9 | 0.00 | 0.00 | 0.00 | 87 | 1014.4 |
| 20260904131720 | 69 | 346 | 3.5 | 4.3 | 0.00 | 0.00 | 0.00 | 87 | 1014.4 |
| 20260904131219 | 69 | 335 | 3.5 | 4.3 | 0.00 | 0.00 | 0.00 | 88 | 1014.0 |
| 20260904130721 | 69 | 333 | 0.0 | 0.9 | 0.00 | 0.00 | 0.00 | 90 | 1014.4 |
| 20260904125720 | 69 | 338 | 1.7 | 2.6 | 0.00 | 0.00 | 0.00 | 90 | 1014.4 |
| 20260904125218 | 68 | 327 | 2.6 | 4.3 | 0.00 | 0.00 | 0.00 | 89 | 1014.4 |
| 20260904124717 | 67 | 334 | 3.5 | 5.2 | 0.00 | 0.00 | 0.00 | 90 | 1014.4 |
| 20260904124219 | 68 | 332 | 1.7 | 1.7 | 0.00 | 0.00 | 0.00 | 90 | 1014.2 |
| 20260904123718 | 67 | 328 | 0.9 | 0.9 | 0.00 | 0.00 | 0.00 | 92 | 1014.4 |
| 20260904123217 | 67 | 330 | 1.7 | 1.7 | 0.00 | 0.00 | 0.00 | 92 | 1014.4 |
| 20260904122716 | 67 | 342 | 2.6 | 4.3 | 0.00 | 0.00 | 0.00 | 91 | 1014.4 |
| 20260904122217 | 67 | 331 | 0.0 | 0.9 | 0.00 | 0.00 | 0.00 | 92 | 1014.0 |
| 20260904121717 | 66 | 341 | 2.6 | 4.3 | 0.00 | 0.00 | 0.00 | 92 | 1014.4 |
| 20260904121246 | 66 | 331 | 0.9 | 1.7 | 0.00 | 0.00 | 0.00 | 94 | 1014.0 |
| 20260904120746 | 65 | 337 | 1.7 | 2.6 | 0.00 | 0.00 | 0.00 | 96 | 1014.0 |
| 20260904115245 | 65 | 0.0 | 0.0 | 0.00 | 0.00 | 0.00 | 99 | 1014.0 | |
| 20260904114744 | 64 | 0.0 | 0.0 | 0.00 | 0.00 | 0.00 | 99 | 1014.0 | |
| 20260904114345 | 62 | 0.0 | 0.0 | 0.00 | 0.00 | 0.00 | 99 | 1014.0 | |
| 20260904113745 | 61 | 0.0 | 0.0 | 0.00 | 0.00 | 0.00 | 99 | 1014.0 | |
| 20260904113343 | 60 | 0.0 | 0.0 | 0.00 | 0.00 | 0.00 | 99 | 1014.0 | |
| 20260904112742 | 60 | 0.0 | 0.0 | 0.00 | 0.00 | 0.00 | 99 | 1013.8 | |
| 20260904112241 | 59 | 0.0 | 0.0 | 0.00 | 0.00 | 0.00 | 99 | 1014.0 | |
| 20260904111743 | 59 | 0.0 | 0.0 | 0.00 | 0.00 | 0.00 | 99 | 1013.7 | |
| 20260904111242 | 59 | 0.0 | 0.0 | 0.00 | 0.00 | 0.00 | 99 | 1014.0 | |
| 20260904110741 | 59 | 0.0 | 0.0 | 0.00 | 0.00 | 0.00 | 99 | 1013.7 | |
| 20260904110242 | 59 | 0.0 | 0.0 | 0.00 | 0.00 | 0.00 | 99 | 1013.7 | |
| 20260904105741 | 59 | 333 | 1.7 | 1.7 | 0.00 | 0.00 | 0.00 | 99 | 1013.7 |
| 20260904105242 | 59 | 327 | 1.7 | 1.7 | 0.00 | 0.00 | 0.00 | 99 | 1013.7 |
| 20260904104239 | 58 | 329 | 1.7 | 2.6 | 0.00 | 0.00 | 0.00 | 99 | 1013.7 |
| 20260904103740 | 58 | 325 | 1.7 | 1.7 | 0.00 | 0.00 | 0.00 | 99 | 1013.7 |
| 20260904102739 | 58 | 323 | 0.9 | 0.9 | 0.00 | 0.00 | 0.00 | 99 | 1013.7 |
| 20260904102239 | 58 | 327 | 1.7 | 1.7 | 0.00 | 0.00 | 0.00 | 99 | 1013.7 |
| 20260904101739 | 58 | 329 | 1.7 | 1.7 | 0.00 | 0.00 | 0.00 | 99 | 1013.5 |
| 20260904101238 | 58 | 327 | 0.9 | 0.9 | 0.00 | 0.00 | 0.00 | 99 | 1013.3 |
| 20260904100737 | 58 | 325 | 0.9 | 0.9 | 0.00 | 0.00 | 0.00 | 99 | 1013.3 |
| 20260904100236 | 58 | 326 | 0.0 | 0.9 | 0.00 | 0.00 | 0.00 | 99 | 1013.5 |
| 20260904095737 | 58 | 323 | 1.7 | 1.7 | 0.00 | 0.00 | 0.00 | 99 | 1013.3 |
| 20260904095237 | 58 | 325 | 1.7 | 1.7 | 0.00 | 0.00 | 0.00 | 99 | 1013.3 |
| 20260904094736 | 59 | 317 | 1.7 | 1.7 | 0.00 | 0.00 | 0.00 | 99 | 1013.3 |
| 20260904094237 | 58 | 323 | 1.7 | 1.7 | 0.00 | 0.00 | 0.00 | 99 | 1013.3 |
| 20260904093736 | 58 | 321 | 0.9 | 0.9 | 0.00 | 0.00 | 0.00 | 99 | 1013.3 |
| 20260904093235 | 59 | 322 | 0.9 | 0.9 | 0.00 | 0.00 | 0.00 | 99 | 1013.3 |
| 20260904092734 | 59 | 321 | 1.7 | 1.7 | 0.00 | 0.00 | 0.00 | 99 | 1013.3 |
| 20260904092234 | 59 | 323 | 1.7 | 1.7 | 0.00 | 0.00 | 0.00 | 99 | 1013.3 |
| 20260904091735 | 59 | 326 | 1.7 | 1.7 | 0.00 | 0.00 | 0.00 | 99 | 1013.3 |
| 20260904091234 | 59 | 331 | 2.6 | 2.6 | 0.00 | 0.00 | 0.00 | 99 | 1013.3 |
| 20260904090733 | 59 | 318 | 1.7 | 2.6 | 0.00 | 0.00 | 0.00 | 99 | 1013.3 |
| 20260904090232 | 59 | 332 | 1.7 | 1.7 | 0.00 | 0.00 | 0.00 | 99 | 1013.3 |
| 20260904085733 | 59 | 319 | 1.7 | 1.7 | 0.00 | 0.00 | 0.00 | 99 | 1013.3 |
| 20260904085233 | 59 | 325 | 1.7 | 1.7 | 0.00 | 0.00 | 0.00 | 99 | 1013.3 |
| 20260904084732 | 59 | 323 | 1.7 | 1.7 | 0.00 | 0.00 | 0.00 | 99 | 1013.3 |
| 20260904084231 | 59 | 319 | 1.7 | 1.7 | 0.00 | 0.00 | 0.00 | 99 | 1013.3 |
| 20260904083732 | 59 | 320 | 1.7 | 1.7 | 0.00 | 0.00 | 0.00 | 99 | 1013.3 |
| 20260904083232 | 59 | 321 | 1.7 | 1.7 | 0.00 | 0.00 | 0.00 | 99 | 1013.3 |
| 20260904082731 | 59 | 325 | 1.7 | 1.7 | 0.00 | 0.00 | 0.00 | 99 | 1013.3 |
| 20260904082230 | 59 | 317 | 1.7 | 1.7 | 0.00 | 0.00 | 0.00 | 99 | 1013.3 |
| 20260904081829 | 59 | 322 | 1.7 | 1.7 | 0.00 | 0.00 | 0.00 | 99 | 1013.3 |
| 20260904081231 | 59 | 325 | 0.9 | 0.9 | 0.00 | 0.00 | 0.00 | 99 | 1013.3 |
| 20260904080731 | 59 | 326 | 0.9 | 0.9 | 0.00 | 0.00 | 0.00 | 99 | 1013.3 |
| 20260904080229 | 59 | 325 | 0.0 | 0.9 | 0.00 | 0.00 | 0.00 | 99 | 1013.3 |
| 20260904075729 | 59 | 0.0 | 0.0 | 0.00 | 0.00 | 0.00 | 99 | 1013.3 | |
| 20260904075229 | 59 | 326 | 0.9 | 0.9 | 0.00 | 0.00 | 0.00 | 99 | 1013.3 |
| 20260904074728 | 59 | 323 | 0.9 | 0.9 | 0.00 | 0.00 | 0.00 | 99 | 1013.3 |
| 20260904074227 | 59 | 323 | 0.9 | 0.9 | 0.00 | 0.00 | 0.00 | 99 | 1013.3 |
| 20260904073228 | 59 | 324 | 1.7 | 1.7 | 0.00 | 0.00 | 0.00 | 99 | 1013.7 |
| 20260904072727 | 59 | 326 | 0.9 | 1.7 | 0.00 | 0.00 | 0.00 | 99 | 1013.5 |
| 20260904072226 | 59 | 322 | 1.7 | 1.7 | 0.00 | 0.00 | 0.00 | 99 | 1013.7 |
| 20260904071727 | 59 | 322 | 0.9 | 1.7 | 0.00 | 0.00 | 0.00 | 99 | 1013.7 |
| 20260904071226 | 59 | 328 | 0.9 | 1.7 | 0.00 | 0.00 | 0.00 | 99 | 1013.7 |
| 20260904070726 | 59 | 0.0 | 0.0 | 0.00 | 0.00 | 0.00 | 99 | 1013.7 | |
| 20260904070225 | 59 | 322 | 0.9 | 1.7 | 0.00 | 0.00 | 0.00 | 99 | 1013.7 |
| 20260904065724 | 59 | 326 | 0.9 | 0.9 | 0.00 | 0.00 | 0.00 | 99 | 1013.7 |
| 20260904065225 | 59 | 329 | 1.7 | 1.7 | 0.00 | 0.00 | 0.00 | 99 | 1013.7 |
| 20260904064724 | 59 | 326 | 0.9 | 1.7 | 0.00 | 0.00 | 0.00 | 99 | 1013.7 |
| 20260904064224 | 59 | 325 | 0.9 | 0.9 | 0.00 | 0.00 | 0.00 | 99 | 1013.7 |
| 20260904063723 | 60 | 327 | 0.9 | 0.9 | 0.00 | 0.00 | 0.00 | 99 | 1013.8 |
| 20260904063224 | 60 | 322 | 0.9 | 1.7 | 0.00 | 0.00 | 0.00 | 99 | 1013.7 |
| 20260904062732 | 59 | 329 | 1.7 | 1.7 | 0.00 | 0.00 | 0.00 | 99 | 1013.7 |
| 20260904062223 | 60 | 322 | 0.9 | 1.7 | 0.00 | 0.00 | 0.00 | 99 | 1013.7 |
| 20260904061722 | 60 | 320 | 1.7 | 1.7 | 0.00 | 0.00 | 0.00 | 99 | 1014.0 |
| 20260904061222 | 60 | 327 | 0.9 | 0.9 | 0.00 | 0.00 | 0.00 | 99 | 1014.0 |
| 20260904060723 | 60 | 326 | 0.9 | 0.9 | 0.00 | 0.00 | 0.00 | 99 | 1014.0 |
| 20260904060224 | 60 | 325 | 1.7 | 1.7 | 0.00 | 0.00 | 0.00 | 99 | 1014.0 |
| 20260904055721 | 60 | 322 | 1.7 | 1.7 | 0.00 | 0.00 | 0.00 | 99 | 1014.0 |
| 20260904055220 | 60 | 325 | 1.7 | 1.7 | 0.00 | 0.00 | 0.00 | 99 | 1014.2 |
| 20260904054721 | 60 | 324 | 0.9 | 0.9 | 0.00 | 0.00 | 0.00 | 99 | 1014.2 |
| 20260904054220 | 60 | 324 | 1.7 | 1.7 | 0.00 | 0.00 | 0.00 | 99 | 1014.4 |
| 20260904053719 | 60 | 323 | 0.9 | 0.9 | 0.00 | 0.00 | 0.00 | 99 | 1014.4 |
| 20260904053218 | 60 | 321 | 0.9 | 1.7 | 0.00 | 0.00 | 0.00 | 99 | 1014.5 |
| 20260904052719 | 60 | 324 | 0.9 | 1.7 | 0.00 | 0.00 | 0.00 | 99 | 1014.7 |
| 20260904052239 | 60 | 324 | 0.9 | 1.7 | 0.00 | 0.00 | 0.00 | 99 | 1014.4 |
| 20260904051217 | 61 | 324 | 1.7 | 1.7 | 0.00 | 0.00 | 0.00 | 99 | 1014.7 |
| 20260904050717 | 61 | 325 | 1.7 | 1.7 | 0.00 | 0.00 | 0.00 | 99 | 1014.7 |
| 20260904050217 | 61 | 327 | 1.7 | 1.7 | 0.00 | 0.00 | 0.00 | 99 | 1014.7 |
| 20260904045717 | 61 | 323 | 0.9 | 1.7 | 0.00 | 0.00 | 0.00 | 99 | 1014.7 |
| 20260904045216 | 61 | 323 | 1.7 | 1.7 | 0.00 | 0.00 | 0.00 | 99 | 1014.7 |
| 20260904044717 | 61 | 323 | 0.9 | 1.7 | 0.00 | 0.00 | 0.00 | 99 | 1014.9 |
| 20260904044246 | 61 | 326 | 0.9 | 1.7 | 0.00 | 0.00 | 0.00 | 99 | 1015.1 |
| 20260904043745 | 61 | 322 | 0.9 | 0.9 | 0.00 | 0.00 | 0.00 | 99 | 1014.7 |
| 20260904043245 | 61 | 322 | 0.9 | 0.9 | 0.00 | 0.00 | 0.00 | 99 | 1014.7 |
| 20260904042745 | 61 | 324 | 0.9 | 0.9 | 0.00 | 0.00 | 0.00 | 99 | 1014.7 |
| 20260904042245 | 61 | 327 | 0.9 | 0.9 | 0.00 | 0.00 | 0.00 | 99 | 1014.7 |
| 20260904041747 | 62 | 325 | 0.9 | 0.9 | 0.00 | 0.00 | 0.00 | 99 | 1014.7 |
| 20260904041243 | 62 | 324 | 0.9 | 0.9 | 0.00 | 0.00 | 0.00 | 99 | 1015.1 |
| 20260904040745 | 62 | 0.0 | 0.0 | 0.00 | 0.00 | 0.00 | 99 | 1015.1 | |
| 20260904040243 | 62 | 326 | 0.0 | 0.9 | 0.00 | 0.00 | 0.00 | 99 | 1014.7 |
| 20260904035744 | 62 | 324 | 0.9 | 0.9 | 0.00 | 0.00 | 0.04 | 99 | 1014.7 |
| 20260904033743 | 63 | 0.0 | 0.0 | 0.00 | 0.00 | 0.04 | 99 | 1015.1 | |
| 20260904032740 | 64 | 323 | 0.9 | 0.9 | 0.00 | 0.00 | 0.04 | 99 | 1015.1 |
| 20260904032241 | 64 | 0.0 | 0.0 | 0.00 | 0.00 | 0.04 | 99 | 1015.1 | |
| 20260904031740 | 64 | 331 | 0.9 | 0.9 | 0.00 | 0.00 | 0.04 | 99 | 1015.1 |
| 20260904031239 | 64 | 326 | 1.7 | 1.7 | 0.00 | 0.00 | 0.04 | 99 | 1015.1 |
| 20260904030742 | 64 | 336 | 1.7 | 1.7 | 0.00 | 0.00 | 0.04 | 99 | 1015.1 |
| 20260904030239 | 64 | 328 | 0.9 | 1.7 | 0.00 | 0.00 | 0.04 | 99 | 1015.1 |
| 20260904025739 | 65 | 322 | 0.9 | 1.7 | 0.00 | 0.00 | 0.04 | 99 | 1015.4 |
| 20260904024738 | 65 | 324 | 1.7 | 1.7 | 0.00 | 0.00 | 0.04 | 99 | 1015.1 |
| 20260904024239 | 65 | 325 | 1.7 | 1.7 | 0.00 | 0.00 | 0.04 | 99 | 1015.4 |
| 20260904013739 | 65 | 0.0 | 0.0 | 0.00 | 0.00 | 0.04 | 99 | 1015.4 | |
| 20260904013233 | 66 | 0.0 | 0.0 | 0.00 | 0.00 | 0.04 | 99 | 1015.4 | |
| 20260904012737 | 66 | 0.0 | 0.0 | 0.00 | 0.00 | 0.04 | 99 | 1015.4 | |
| 20260904012235 | 66 | 323 | 0.9 | 0.9 | 0.00 | 0.00 | 0.04 | 99 | 1015.4 |
| 20260904011733 | 66 | 324 | 0.9 | 0.9 | 0.00 | 0.00 | 0.04 | 99 | 1015.4 |
| 20260904011232 | 66 | 322 | 0.9 | 1.7 | 0.00 | 0.00 | 0.04 | 99 | 1015.1 |
| 20260904010731 | 66 | 326 | 0.9 | 1.7 | 0.00 | 0.00 | 0.04 | 99 | 1015.4 |
| 20260904010236 | 66 | 320 | 1.7 | 1.7 | 0.00 | 0.00 | 0.04 | 99 | 1015.4 |
| 20260904005731 | 66 | 323 | 0.9 | 0.9 | 0.00 | 0.00 | 0.04 | 99 | 1015.4 |
| 20260904004730 | 66 | 321 | 0.9 | 1.7 | 0.00 | 0.00 | 0.04 | 99 | 1015.4 |
| 20260904004231 | 66 | 325 | 0.9 | 1.7 | 0.00 | 0.00 | 0.04 | 99 | 1015.4 |
| 20260904003731 | 66 | 328 | 1.7 | 1.7 | 0.00 | 0.00 | 0.04 | 99 | 1015.1 |
| 20260904003329 | 66 | 330 | 0.9 | 1.7 | 0.00 | 0.00 | 0.04 | 99 | 1015.1 |
| 20260904002829 | 66 | 322 | 0.9 | 1.7 | 0.00 | 0.00 | 0.04 | 99 | 1015.1 |
| 20260904002229 | 66 | 328 | 1.7 | 1.7 | 0.00 | 0.00 | 0.04 | 99 | 1015.1 |
| 20260904001729 | 66 | 326 | 0.9 | 1.7 | 0.00 | 0.00 | 0.04 | 99 | 1015.1 |
| 20260904001328 | 66 | 323 | 0.9 | 1.7 | 0.00 | 0.00 | 0.04 | 99 | 1015.1 |
| 20260904000727 | 67 | 329 | 0.9 | 1.7 | 0.00 | 0.00 | 0.04 | 99 | 1015.1 |
| 20260904000226 | 67 | 325 | 1.7 | 1.7 | 0.00 | 0.00 | 0.04 | 99 | 1014.7 |
| 20260903235728 | 67 | 0.0 | 0.0 | 0.00 | 0.00 | 0.04 | 99 | 1014.7 | |
| 20260903235227 | 67 | 331 | 0.9 | 0.9 | 0.00 | 0.00 | 0.04 | 99 | 1014.7 |
| 20260903234726 | 67 | 329 | 0.9 | 1.7 | 0.00 | 0.00 | 0.04 | 99 | 1014.7 |
| 20260903234225 | 68 | 323 | 0.9 | 0.9 | 0.00 | 0.00 | 0.04 | 99 | 1014.4 |
| 20260903233724 | 68 | 326 | 0.9 | 0.9 | 0.00 | 0.00 | 0.04 | 99 | 1014.4 |
| 20260903233226 | 68 | 0.0 | 0.0 | 0.00 | 0.00 | 0.04 | 99 | 1014.4 | |
| 20260903232725 | 68 | 325 | 0.9 | 0.9 | 0.00 | 0.00 | 0.04 | 99 | 1014.5 |
| 20260903232225 | 68 | 323 | 0.9 | 0.9 | 0.00 | 0.00 | 0.04 | 99 | 1014.4 |
| 20260903231723 | 68 | 322 | 0.9 | 0.9 | 0.00 | 0.00 | 0.04 | 99 | 1014.4 |
| 20260903231225 | 69 | 323 | 0.9 | 0.9 | 0.00 | 0.00 | 0.04 | 99 | 1014.4 |
| 20260903230724 | 69 | 326 | 0.9 | 0.9 | 0.00 | 0.00 | 0.04 | 99 | 1014.7 |
| 20260903230223 | 69 | 327 | 0.0 | 0.9 | 0.00 | 0.00 | 0.04 | 99 | 1014.7 |
| 20260903225827 | 69 | 323 | 1.7 | 1.7 | 0.00 | 0.00 | 0.04 | 99 | 1014.7 |
| 20260903225226 | 70 | 323 | 1.7 | 1.7 | 0.00 | 0.00 | 0.04 | 99 | 1014.7 |
| 20260903224722 | 70 | 0.0 | 0.0 | 0.00 | 0.00 | 0.04 | 99 | 1014.7 | |
| 20260903223722 | 71 | 346 | 0.0 | 0.9 | 0.00 | 0.00 | 0.04 | 99 | 1014.7 |
| 20260903223224 | 71 | 331 | 0.0 | 0.9 | 0.00 | 0.00 | 0.04 | 99 | 1014.7 |
| 20260903222724 | 72 | 0.0 | 0.0 | 0.00 | 0.00 | 0.04 | 97 | 1014.4 | |
| 20260903222220 | 73 | 0.0 | 0.0 | 0.00 | 0.00 | 0.04 | 97 | 1014.5 | |
| 20260903221822 | 73 | 0.0 | 0.0 | 0.00 | 0.00 | 0.04 | 97 | 1014.7 | |
| 20260903221321 | 74 | 0.0 | 0.0 | 0.00 | 0.00 | 0.04 | 93 | 1014.7 | |
| 20260903220800 | 0 | 0.0 | 0.0 | 0.00 | 0.00 | 0.04 | 1014.7 | ||
| 20260903210245 | 75 | 324 | 0.9 | 0.9 | 0.00 | 0.00 | 0.04 | 90 | 1014.7 |
| 20260903205744 | 75 | 324 | 0.9 | 0.9 | 0.00 | 0.00 | 0.04 | 90 | 1015.1 |
| 20260903195241 | 74 | 302 | 2.6 | 2.6 | 0.00 | 0.00 | 0.04 | 91 | 1015.1 |
| 20260903194740 | 73 | 263 | 2.6 | 4.3 | 0.00 | 0.00 | 0.04 | 92 | 1015.1 |
| 20260903194239 | 73 | 263 | 2.6 | 4.3 | 0.00 | 0.00 | 0.04 | 92 | 1015.4 |
| 20260903193738 | 72 | 125 | 4.3 | 6.1 | 0.00 | 0.00 | 0.04 | 94 | 1015.4 |
| 20260903193240 | 72 | 149 | 4.3 | 6.1 | 0.00 | 0.00 | 0.04 | 94 | 1015.4 |
| 20260903192739 | 72 | 283 | 2.6 | 2.6 | 0.00 | 0.00 | 0.04 | 94 | 1015.1 |
| 20260903192238 | 71 | 212 | 3.5 | 6.1 | 0.00 | 0.00 | 0.04 | 94 | 1015.4 |
| 20260903191739 | 71 | 33 | 3.5 | 4.3 | 0.00 | 0.00 | 0.04 | 94 | 1015.4 |
| 20260903191238 | 71 | 303 | 1.7 | 1.7 | 0.00 | 0.00 | 0.04 | 93 | 1015.4 |
| 20260903190737 | 71 | 303 | 1.7 | 1.7 | 0.00 | 0.00 | 0.04 | 93 | 1015.6 |
| 20260903190237 | 72 | 100 | 5.2 | 6.1 | 0.00 | 0.00 | 0.04 | 93 | 1015.4 |
| 20260903185736 | 71 | 283 | 2.6 | 2.6 | 0.00 | 0.00 | 0.04 | 94 | 1015.8 |
| 20260903185237 | 71 | 238 | 3.5 | 6.1 | 0.00 | 0.00 | 0.04 | 94 | 1015.8 |
| 20260903184839 | 71 | 89 | 3.5 | 5.2 | 0.00 | 0.00 | 0.04 | 95 | 1015.6 |
| 20260903184236 | 71 | 318 | 1.7 | 2.6 | 0.00 | 0.00 | 0.04 | 95 | 1015.8 |
| 20260903183902 | 71 | 292 | 1.7 | 1.7 | 0.00 | 0.00 | 0.04 | 95 | 1015.8 |
| 20260903183339 | 71 | 290 | 1.7 | 2.6 | 0.00 | 0.00 | 0.04 | 96 | 1015.8 |
| 20260903182735 | 70 | 289 | 2.6 | 4.3 | 0.00 | 0.00 | 0.04 | 97 | 1015.8 |
| 20260903182236 | 70 | 325 | 1.7 | 2.6 | 0.00 | 0.00 | 0.04 | 97 | 1016.1 |
| 20260903181734 | 70 | 285 | 2.6 | 2.6 | 0.00 | 0.00 | 0.04 | 97 | 1016.1 |
| 20260903180735 | 69 | 328 | 0.0 | 0.9 | 0.00 | 0.00 | 0.04 | 99 | 1015.8 |
| 20260903180234 | 69 | 297 | 1.7 | 2.6 | 0.00 | 0.00 | 0.04 | 99 | 1015.9 |
| 20260903175732 | 68 | 345 | 0.9 | 0.9 | 0.00 | 0.00 | 0.04 | 99 | 1016.1 |
| 20260903175235 | 68 | 339 | 0.9 | 0.9 | 0.00 | 0.00 | 0.04 | 99 | 1016.1 |
| 20260903174733 | 67 | 286 | 1.7 | 1.7 | 0.00 | 0.00 | 0.04 | 99 | 1016.1 |
| 20260903174232 | 67 | 273 | 1.7 | 2.6 | 0.00 | 0.00 | 0.04 | 99 | 1016.1 |
| 20260903173731 | 67 | 331 | 0.9 | 0.9 | 0.00 | 0.00 | 0.04 | 99 | 1016.1 |
| 20260903173234 | 66 | 334 | 0.9 | 1.7 | 0.00 | 0.00 | 0.04 | 99 | 1016.1 |
| 20260903172734 | 66 | 353 | 1.7 | 2.6 | 0.00 | 0.00 | 0.04 | 99 | 1016.1 |
| 20260903172231 | 66 | 294 | 1.7 | 2.6 | 0.00 | 0.00 | 0.04 | 99 | 1016.3 |
| 20260903171730 | 66 | 297 | 2.6 | 2.6 | 0.00 | 0.00 | 0.04 | 99 | 1016.1 |
| 20260903171232 | 66 | 17 | 1.7 | 1.7 | 0.00 | 0.00 | 0.04 | 99 | 1016.1 |
| 20260903170800 | 66 | 314 | 1.7 | 1.7 | 0.00 | 0.00 | 0.04 | 99 | 1016.1 |
| 20260903170229 | 66 | 0.0 | 0.0 | 0.00 | 0.00 | 0.04 | 99 | 1016.5 | |
| 20260903165731 | 65 | 298 | 1.7 | 1.7 | 0.00 | 0.00 | 0.04 | 99 | 1016.5 |
| 20260903165230 | 65 | 334 | 1.7 | 1.7 | 0.00 | 0.00 | 0.04 | 99 | 1016.5 |
| 20260903164730 | 65 | 310 | 1.7 | 1.7 | 0.00 | 0.00 | 0.04 | 99 | 1016.5 |
| 20260903164229 | 65 | 313 | 0.9 | 0.9 | 0.00 | 0.00 | 0.04 | 99 | 1016.5 |
| 20260903163732 | 64 | 335 | 1.7 | 1.7 | 0.00 | 0.00 | 0.04 | 99 | 1016.5 |
| 20260903163228 | 64 | 314 | 0.9 | 1.7 | 0.00 | 0.00 | 0.04 | 99 | 1016.5 |
| 20260903162727 | 64 | 274 | 1.7 | 2.6 | 0.00 | 0.00 | 0.04 | 99 | 1016.5 |
| 20260903162226 | 64 | 0.0 | 0.0 | 0.00 | 0.00 | 0.04 | 99 | 1016.5 | |
| 20260903161726 | 64 | 0.0 | 0.0 | 0.00 | 0.00 | 0.04 | 99 | 1016.5 | |
| 20260903161225 | 64 | 315 | 1.7 | 1.7 | 0.00 | 0.00 | 0.04 | 99 | 1016.6 |
| 20260903160726 | 63 | 335 | 0.9 | 0.9 | 0.00 | 0.00 | 0.04 | 99 | 1016.5 |
| 20260903160225 | 63 | 0.0 | 0.0 | 0.00 | 0.00 | 0.04 | 99 | 1016.8 | |
| 20260903155725 | 64 | 323 | 0.9 | 0.9 | 0.00 | 0.00 | 0.04 | 99 | 1016.8 |
| 20260903155224 | 63 | 326 | 0.0 | 0.9 | 0.00 | 0.00 | 0.04 | 99 | 1016.8 |
| 20260903154825 | 63 | 0.0 | 0.0 | 0.00 | 0.00 | 0.04 | 99 | 1016.8 | |
| 20260903154224 | 63 | 340 | 0.9 | 0.9 | 0.00 | 0.00 | 0.04 | 99 | 1016.6 |
| 20260903153823 | 63 | 354 | 1.7 | 1.7 | 0.00 | 0.00 | 0.04 | 99 | 1016.5 |
| 20260903153222 | 62 | 321 | 0.0 | 0.9 | 0.00 | 0.00 | 0.04 | 99 | 1016.8 |
| 20260903152723 | 62 | 341 | 0.9 | 0.9 | 0.00 | 0.00 | 0.04 | 99 | 1016.8 |
| 20260903152222 | 62 | 312 | 1.7 | 1.7 | 0.00 | 0.00 | 0.04 | 99 | 1016.8 |
| 20260903151722 | 62 | 312 | 0.9 | 1.7 | 0.00 | 0.00 | 0.04 | 99 | 1016.8 |
| 20260903151221 | 62 | 329 | 0.0 | 0.9 | 0.00 | 0.00 | 0.04 | 99 | 1016.8 |
| 20260903150723 | 62 | 285 | 1.7 | 2.6 | 0.00 | 0.00 | 0.04 | 99 | 1017.0 |
| 20260903150224 | 62 | 332 | 1.7 | 1.7 | 0.00 | 0.00 | 0.04 | 99 | 1016.8 |
| 20260903145721 | 61 | 331 | 0.9 | 1.7 | 0.00 | 0.00 | 0.04 | 99 | 1016.8 |
| 20260903145220 | 62 | 339 | 0.9 | 0.9 | 0.00 | 0.00 | 0.04 | 99 | 1017.0 |
| 20260903144721 | 61 | 335 | 0.9 | 0.9 | 0.00 | 0.00 | 0.04 | 99 | 1016.8 |
| 20260903144222 | 61 | 316 | 0.9 | 0.9 | 0.00 | 0.00 | 0.04 | 99 | 1017.2 |
| 20260903143719 | 61 | 329 | 0.0 | 0.9 | 0.00 | 0.00 | 0.04 | 99 | 1017.2 |
| 20260903143220 | 61 | 329 | 0.9 | 0.9 | 0.00 | 0.00 | 0.04 | 99 | 1017.2 |
| 20260903142719 | 61 | 328 | 0.9 | 0.9 | 0.00 | 0.00 | 0.04 | 99 | 1017.2 |
| 20260903142219 | 61 | 0.0 | 0.0 | 0.00 | 0.00 | 0.04 | 99 | 1017.2 | |
| 20260903141908 | 61 | 339 | 0.0 | 0.9 | 0.00 | 0.00 | 0.04 | 99 | 1017.2 |
| 20260903141219 | 60 | 334 | 0.0 | 0.9 | 0.00 | 0.00 | 0.04 | 99 | 1017.2 |
| 20260903140718 | 60 | 341 | 0.9 | 1.7 | 0.00 | 0.00 | 0.04 | 99 | 1017.0 |
| 20260903140218 | 60 | 336 | 0.9 | 0.9 | 0.00 | 0.00 | 0.04 | 99 | 1017.0 |
| 20260903135718 | 60 | 344 | 0.9 | 1.7 | 0.00 | 0.00 | 0.04 | 99 | 1017.2 |
| 20260903134717 | 60 | 5 | 1.7 | 2.6 | 0.00 | 0.00 | 0.04 | 99 | 1017.2 |
| 20260903134216 | 60 | 358 | 0.9 | 1.7 | 0.00 | 0.00 | 0.04 | 99 | 1017.2 |
| 20260903133745 | 60 | 346 | 0.9 | 1.7 | 0.00 | 0.00 | 0.04 | 99 | 1017.2 |